Wetbulb
63.52 63.17 62.31 62.45 61.63 60.82 59.65 58.10 57.26 57.02 56.54 56.28 55.30 54.61 53.63 49.59 48.37 46.61 46.56 44.75 45.15 45.11
64.17 63.86 63.04 62.79 62.36 60.74 60.06 58.93 57.73 56.53 55.48 53.83 53.00 50.84 48.60 47.14 44.98 45.15 44.68 44.25 44.07 44.62
64.29 64.28 63.91 62.95 60.61 59.51 59.61 57.59 56.33 54.18 53.16 49.68 48.36 47.25 45.95 44.93 44.62 43.85 43.76 44.47 43.51 43.64
63.75 62.01 60.74 59.81 59.70 58.59 57.84 55.78 53.57 49.62 47.55 46.08 45.16 44.54 44.07 43.57 43.38 42.60 42.98 43.48 43.04 43.33
62.34 60.50 59.14 58.08 56.00 54.66 53.43 50.69 48.67 47.08 45.30 44.94 44.88 44.80 43.24 42.46 42.78 41.99 41.90 42.39 42.73 43.39
56.98 53.78 51.53 49.67 49.45 49.28 48.88 46.91 46.57 46.27 45.41 44.21 43.56 43.11 43.06 43.01 43.25 43.50 43.63 43.91 43.14 43.58
51.30 50.37 49.10 48.40 48.67 47.91 47.35 46.28 45.35 45.16 44.41 43.83 43.36 43.24 43.37 44.02 43.88 43.72 44.29 44.45 44.50 43.29
49.08 47.82 47.68 48.18 47.86 46.91 46.24 46.16 44.96 43.99 43.72 43.94 44.13 44.52 44.10 43.98 44.05 42.88 43.35 42.74 43.47 42.65
47.32 47.48 46.67 46.28 45.49 45.23 44.94 44.15 43.61 43.14 43.44 43.32 43.91 41.14 39.79 39.36 40.85 41.28 40.24 38.96 39.77 40.01
47.26 46.23 46.01 45.47 44.98 44.13 43.35 43.43 42.63 42.67 43.20 43.23 42.96 40.49 39.33 37.10 37.96 37.40 37.16 36.62 36.92 38.09
46.07 44.68 44.01 43.29 42.34 42.02 42.09 42.30 43.32 44.15 44.31 43.83 39.19 36.77 36.09 34.70 36.11 35.81 36.42 36.76 36.46 35.50
44.72 43.16 42.71 41.86 42.02 42.82 43.75 44.62 45.06 43.99 41.08 38.91 34.83 34.03 33.81 35.52 34.06 33.85 32.54 34.43 33.70 33.09
44.97 43.73 43.07 43.54 44.26 44.53 44.70 43.99 40.95 39.86 39.67 37.50 32.61 33.59 32.92 32.88 29.94 28.81 28.09 28.97 29.88 31.13
45.05 45.44 45.69 44.99 43.26 41.34 39.82 39.64 36.40 35.09 34.57 35.42 34.33 31.59 31.01 30.72 27.63 25.98 25.62 25.44 25.92 27.22
MSLP
1012.43 1013.05 1013.57 1013.87 1014.41 1014.98 1015.94 1016.44 1017.22 1017.98 1018.51 1018.83 1019.05 1019.48 1019.65 1021.44 1021.15 1021.91 1022.26 1023.08 1023.52 1023.89
1011.72 1012.34 1012.88 1013.37 1013.81 1014.40 1015.23 1015.89 1016.71 1017.35 1018.27 1018.91 1019.44 1020.12 1021.11 1021.03 1021.70 1022.49 1023.27 1023.58 1023.86 1023.87
1010.87 1011.66 1012.29 1013.03 1013.73 1014.16 1015.15 1016.04 1016.86 1017.40 1018.27 1019.06 1019.81 1020.64 1021.21 1022.20 1022.65 1023.00 1023.56 1023.79 1023.79 1023.79
1010.43 1011.32 1012.26 1013.03 1013.74 1014.60 1015.36 1016.42 1017.21 1017.81 1018.62 1019.46 1020.44 1021.13 1021.39 1022.13 1022.37 1023.16 1023.59 1023.98 1023.69 1023.42
1010.07 1011.34 1012.39 1013.26 1014.20 1014.83 1015.87 1016.63 1017.42 1018.14 1018.83 1019.45 1020.10 1020.53 1021.11 1021.97 1022.64 1023.22 1023.45 1023.19 1023.03 1022.67
1011.42 1011.68 1012.83 1014.15 1014.81 1015.42 1016.31 1017.04 1017.81 1018.45 1019.08 1019.96 1020.39 1020.93 1021.33 1021.85 1022.45 1022.69 1022.67 1022.45 1022.35 1022.26
1012.48 1012.97 1014.00 1014.82 1015.57 1016.24 1016.78 1017.37 1018.03 1018.68 1019.29 1019.91 1020.42 1021.06 1021.49 1021.90 1022.08 1022.14 1022.00 1021.85 1021.72 1021.56
1013.07 1013.41 1014.63 1015.47 1016.07 1016.68 1017.24 1017.82 1018.32 1018.87 1019.53 1020.05 1020.74 1021.21 1021.52 1021.64 1021.65 1021.60 1021.46 1021.27 1021.17 1021.10
1013.79 1014.51 1015.28 1015.95 1016.60 1017.24 1017.76 1018.33 1018.77 1019.34 1019.84 1020.34 1020.71 1020.96 1021.16 1021.33 1021.39 1021.28 1021.21 1021.18 1021.02 1020.91
1014.34 1015.09 1015.84 1016.39 1016.96 1017.61 1018.16 1018.65 1019.11 1019.53 1019.84 1020.06 1020.31 1020.49 1020.95 1021.30 1021.45 1021.42 1021.37 1021.26 1021.13 1020.97
1014.71 1015.50 1016.12 1016.66 1017.32 1017.84 1018.25 1018.62 1018.89 1019.03 1019.29 1019.52 1020.31 1020.67 1021.18 1021.46 1021.43 1021.37 1021.37 1021.33 1021.29 1021.21
1015.10 1015.73 1016.30 1016.87 1017.41 1017.76 1018.05 1018.22 1018.41 1018.59 1019.02 1019.78 1021.03 1021.27 1021.41 1021.46 1021.60 1021.73 1021.83 1021.70 1021.59 1021.64
1015.03 1015.70 1016.27 1016.79 1017.13 1017.47 1017.77 1017.84 1018.24 1018.81 1019.41 1019.99 1021.10 1021.49 1021.55 1021.69 1021.95 1022.25 1022.36 1022.35 1022.09 1021.87
1014.99 1015.34 1015.77 1016.32 1016.69 1017.12 1017.65 1018.26 1018.96 1019.50 1019.90 1020.26 1020.79 1021.73 1021.96 1022.18 1022.47 1022.87 1022.83 1022.55 1022.12 1021.77
Wind_Speed
14 8 9 7 8 8 8 7 7 7 7 6 5 4 6 2 6 5 6 7 4 1
12 12 9 6 5 4 7 6 9 9 6 5 7 8 5 6 7 5 4 3 3 3
12 10 8 6 5 6 6 6 5 7 8 8 9 9 9 5 6 5 2 2 3 4
9 7 6 5 4 6 6 7 8 10 11 11 10 9 10 7 8 6 5 5 5 9
9 9 5 5 6 9 9 8 11 11 12 12 12 10 9 8 6 7 8 9 10 10
8 12 11 9 8 9 9 10 10 9 9 8 9 8 7 7 7 8 10 9 8 10
9 10 9 9 8 8 9 10 10 9 9 8 8 7 7 7 7 9 8 7 8 6
10 12 11 9 9 9 9 8 9 9 7 7 5 4 5 7 7 5 6 7 7 7
11 10 10 10 10 9 9 8 8 7 6 5 4 9 10 5 4 5 6 6 6 7
11 11 9 11 10 10 8 7 7 6 6 6 6 10 6 5 3 4 5 6 6 7
11 11 10 10 9 8 8 8 7 7 6 5 8 12 9 2 3 3 5 6 8 8
11 11 10 9 8 7 6 6 4 4 5 10 8 11 10 6 6 6 6 7 7 10
11 10 9 8 8 6 6 4 5 6 6 9 8 10 12 8 3 5 5 6 8 11
11 10 10 8 5 4 5 7 6 5 5 5 9 9 15 13 5 3 4 5 6 6
Wind_Direction
204 199 205 207 175 181 185 173 167 187 208 214 174 161 132 88 120 122 120 134 122 135
193 205 204 188 153 176 154 166 173 188 170 114 77 83 68 109 98 79 61 82 223 223
198 197 199 143 191 147 130 114 130 127 121 102 106 109 108 90 87 92 93 193 233 260
178 144 142 148 186 135 123 124 116 110 113 112 107 107 108 125 136 152 209 236 239 248
150 132 138 112 100 104 111 120 127 128 129 138 154 156 139 133 153 191 213 227 234 241
95 104 103 102 108 113 126 122 124 127 126 121 121 131 143 163 189 213 229 231 234 246
100 99 100 106 105 115 119 121 120 123 126 132 138 158 172 196 216 229 240 247 241 248
104 101 107 110 112 112 114 119 122 121 122 134 151 179 195 223 229 242 253 254 251 246
102 97 109 112 113 113 115 116 117 118 128 143 188 202 213 233 273 300 324 315 307 312
113 117 123 123 122 121 119 120 127 150 180 192 207 210 149 129 278 312 308 303 298 295
121 122 124 119 120 125 137 156 177 187 186 208 87 83 86 84 271 316 329 334 336 335
129 128 127 130 141 156 176 192 197 173 101 90 90 83 59 34 36 12 348 334 343 344
132 132 137 153 166 176 194 166 75 75 73 100 109 89 66 47 45 14 3 343 321 309
156 161 163 169 131 116 90 89 93 86 56 56 102 90 76 55 49 32 324 314 318 318